Regional Weather Roundup
Issued by NWS Sioux Falls, SD

Home | Current Version | Previous Version | Text Only | Print | Product List | Glossary Off
Versions: 1 2 3 4 5 6 7 8 9 10 11 12 13 14 15 16 17 18 19 20 21 22 23 24 25 26 27 28 29 30 31 32 33 34 35 36 37 38 39 40 41 42 43 44 45 46 47 48 49 50

000
ASUS43 KFSD 311810
RWRFSD

WEATHER ROUNDUP FOR SE SOUTH DAKOTA/SW MINNESOTA/NW IOWA
NATIONAL WEATHER SERVICE SIOUX FALLS SD
100 PM CDT MON AUG 31 2015

NOTE: "FAIR" INDICATES FEW OR NO CLOUDS BELOW 12,000 FEET WITH NO
SIGNIFICANT WEATHER AND OR OBSTRUCTIONS TO VISIBILITY.


SDZ038>040-050-052>070-311900-
SOUTHEAST SOUTH DAKOTA

CITY           SKY/WX    TMP DP  RH WIND       PRES   REMARKS
BROOKINGS      SUNNY     79  66  65 S18       29.87F
CHAMBERLAIN    SUNNY     82  63  53 NW12      29.85R
6HR MIN TEMP:  68; 6HR MAX TEMP:  84;

HURON          SUNNY     85  63  47 SW8       29.81R
6HR MIN TEMP:  66; 6HR MAX TEMP:  85;

MADISON        FAIR      77  72  83 S17       29.87F
MITCHELL       SUNNY     84  66  54 S16       29.83F
6HR MIN TEMP:  65; 6HR MAX TEMP:  84;

SIOUX FALLS    SUNNY     79  69  71 S21G26    29.88F
6HR MIN TEMP:  65; 6HR MAX TEMP:  79;

WINNER         FAIR      83  60  45 NW18      29.89R HAZE
YANKTON        SUNNY     81  68  65 S14       29.87F
$$

MNZ071-072-080-081-089-090-097-098-311900-
SOUTHWEST MINNESOTA

CITY           SKY/WX    TMP DP  RH WIND       PRES   REMARKS
FAIRMONT       SUNNY     79  64  61 S17       29.94F
JACKSON        MOSUNNY   79  70  73 SW14G23   29.95F
LUVERNE        MOSUNNY   81  68  65 S15G21    29.91F
MARSHALL       SUNNY     81  66  61 SW17G28   29.87F
6HR MIN TEMP:  66; 6HR MAX TEMP:  81;

MONTEVIDEO     SUNNY     82  70  65 SW18G24   29.85S
PIPESTONE      SUNNY     79  68  69 S16       29.89F
REDWOOD FALLS  SUNNY     81  68  64 S18G29    29.88S
TRACY          SUNNY     80  69  69 S18G25    29.88F
WINDOM         MOSUNNY   79  66  65 S17       29.92F
WORTHINGTON    MOSUNNY   77  66  69 S22       29.93S
$$

IAZ001>003-012>014-020>022-031-032-NEZ013-014-SDZ071-311900-
NORTHWEST IOWA

CITY           SKY/WX    TMP DP  RH WIND       PRES   REMARKS
CHEROKEE       MOSUNNY   80  70  70 S14G23    29.95F
DENISON        MOSUNNY   79  72  78 S13G20    29.95F
ESTHERVILLE    MOSUNNY   79  69  71 S15       29.95F
LE MARS        SUNNY     81  70  69 S20G26    29.93F
ORANGE CITY    SUNNY     81  70  69 S17G25    29.92F
SHELDON        MOSUNNY   79  70  73 S14G26    29.92F
SIOUX CITY     SUNNY     82  68  62 S15       29.92F
6HR MIN TEMP:  63; 6HR MAX TEMP:  82;

SPENCER        HAZE      80  67  64 S18G25    29.95F VSB 1/4
6HR MIN TEMP:  62; 6HR MAX TEMP:  80;

STORM LAKE     MOSUNNY   79  70  73 S14G20    29.97F
$$

ABBREVIATIONS USED IN REMARKS
   TC - TEMPERATURE IN CELSIUS
  WCI - WIND CHILL INDEX
   HX - HEAT INDEX
  VSB - VISIBILITY



USA.gov is the U.S. government's official web portal to all federal, state and local government web resources and services.